Time,TemperatureF,DewpointF,PressureIn,WindDirection,WindDirectionDegrees,WindSpeedMPH,WindSpeedGustMPH,Humidity,HourlyPrecipIn,Conditions,Clouds,dailyrainin,SoftwareType,DateUTC
2013-05-14 00:01:00,50.9,-6.0,30.50,WSW,254,11.0,18.0,9,0.00,,,0.00,meteohub,2013-05-14 04:01:00,
2013-05-14 00:02:00,50.9,-6.0,30.50,WSW,255,10.0,18.0,9,0.00,,,0.00,meteohub,2013-05-14 04:02:00,
2013-05-14 00:03:00,50.9,-6.0,30.50,WSW,253,13.0,18.0,9,0.00,,,0.00,meteohub,2013-05-14 04:03:00,
2013-05-14 00:06:00,50.7,-6.2,30.50,SW,216,8.0,18.0,9,0.00,,,0.00,meteohub,2013-05-14 04:06:00,
2013-05-14 00:11:00,50.7,-6.2,30.50,SW,221,8.0,17.0,9,0.00,,,0.00,meteohub,2013-05-14 04:11:00,
2013-05-14 00:16:00,50.7,-6.2,30.50,SW,226,12.0,22.0,9,0.00,,,0.00,meteohub,2013-05-14 04:16:00,
2013-05-14 00:21:00,50.5,-6.2,30.50,West,264,10.0,22.0,9,0.00,,,0.00,meteohub,2013-05-14 04:21:00,
2013-05-14 00:27:00,50.5,-6.2,30.50,WSW,244,12.0,22.0,9,0.00,,,0.00,meteohub,2013-05-14 04:27:00,
2013-05-14 00:32:00,50.5,-6.2,30.50,West,262,10.0,18.0,9,0.00,,,0.00,meteohub,2013-05-14 04:32:00,
2013-05-14 00:37:00,50.4,-6.3,30.50,WSW,252,9.0,18.0,9,0.00,,,0.00,meteohub,2013-05-14 04:37:00,
2013-05-14 00:42:00,50.4,-6.3,30.50,SW,229,8.0,15.0,9,0.00,,,0.00,meteohub,2013-05-14 04:42:00,
2013-05-14 00:47:00,50.2,-6.5,30.50,SSW,201,17.0,17.0,9,0.00,,,0.00,meteohub,2013-05-14 04:47:00,
2013-05-14 00:52:00,50.4,-6.3,30.50,West,270,8.0,18.0,9,0.00,,,0.00,meteohub,2013-05-14 04:52:00,
2013-05-14 00:58:00,50.4,-6.3,30.50,West,275,8.0,18.0,9,0.00,,,0.00,meteohub,2013-05-14 04:58:00,
2013-05-14 01:03:00,50.4,-6.3,30.53,WSW,256,9.0,18.0,9,0.00,,,0.00,meteohub,2013-05-14 05:03:00,
2013-05-14 01:08:00,50.2,-6.5,30.53,SSW,212,8.0,18.0,9,0.00,,,0.00,meteohub,2013-05-14 05:08:00,
2013-05-14 01:14:00,50.2,-6.5,30.53,WSW,253,15.0,18.0,9,0.00,,,0.00,meteohub,2013-05-14 05:14:00,
2013-05-14 01:19:00,50.2,-6.5,30.53,SW,221,6.0,18.0,9,0.00,,,0.00,meteohub,2013-05-14 05:19:00,
2013-05-14 01:24:00,50.2,-6.5,30.53,SW,232,11.0,17.0,9,0.00,,,0.00,meteohub,2013-05-14 05:24:00,
2013-05-14 01:29:00,50.2,-6.5,30.53,WSW,255,11.0,17.0,9,0.00,,,0.00,meteohub,2013-05-14 05:29:00,
2013-05-14 01:35:00,50.2,-6.5,30.53,WSW,242,4.0,18.0,9,0.00,,,0.00,meteohub,2013-05-14 05:35:00,
2013-05-14 01:40:00,50.2,-6.5,30.53,SW,231,11.0,18.0,9,0.00,,,0.00,meteohub,2013-05-14 05:40:00,
2013-05-14 01:45:00,50.2,-6.5,30.53,West,273,9.0,19.0,9,0.00,,,0.00,meteohub,2013-05-14 05:45:00,
2013-05-14 01:50:00,50.2,-6.5,30.53,SW,229,11.0,19.0,9,0.00,,,0.00,meteohub,2013-05-14 05:50:00,
2013-05-14 01:55:00,50.0,-6.7,30.53,West,262,16.0,19.0,9,0.00,,,0.00,meteohub,2013-05-14 05:55:00,
2013-05-14 02:01:00,50.0,-6.7,30.56,West,267,4.0,19.0,9,0.00,,,0.00,meteohub,2013-05-14 06:01:00,
2013-05-14 02:06:00,50.0,-6.7,30.56,WSW,249,11.0,18.0,9,0.00,,,0.00,meteohub,2013-05-14 06:06:00,
2013-05-14 02:11:00,50.0,-6.7,30.56,SSW,209,10.0,18.0,9,0.00,,,0.00,meteohub,2013-05-14 06:11:00,
2013-05-14 02:16:00,49.8,-6.9,30.56,WSW,247,8.0,15.0,9,0.00,,,0.00,meteohub,2013-05-14 06:16:00,
2013-05-14 02:22:00,49.8,-6.9,30.56,West,280,8.0,16.0,9,0.00,,,0.00,meteohub,2013-05-14 06:22:00,
2013-05-14 02:27:00,49.6,-6.9,30.56,SSW,213,6.0,16.0,9,0.00,,,0.00,meteohub,2013-05-14 06:27:00,
2013-05-14 02:32:00,49.6,-6.9,30.56,SW,224,6.0,16.0,9,0.00,,,0.00,meteohub,2013-05-14 06:32:00,
2013-05-14 02:37:00,49.5,-7.1,30.56,West,275,8.0,15.0,9,0.00,,,0.00,meteohub,2013-05-14 06:37:00,
2013-05-14 02:42:00,49.5,-7.1,30.56,WNW,285,10.0,15.0,9,0.00,,,0.00,meteohub,2013-05-14 06:42:00,
2013-05-14 02:47:00,49.3,-7.2,30.56,WSW,251,14.0,14.0,9,0.00,,,0.00,meteohub,2013-05-14 06:47:00,
2013-05-14 02:53:00,49.5,-7.1,30.56,WSW,257,12.0,15.0,9,0.00,,,0.00,meteohub,2013-05-14 06:53:00,
2013-05-14 02:58:00,49.3,-7.2,30.56,SW,226,11.0,15.0,9,0.00,,,0.00,meteohub,2013-05-14 06:58:00,
2013-05-14 03:03:00,49.3,-7.2,30.59,West,269,10.0,17.0,9,0.00,,,0.00,meteohub,2013-05-14 07:03:00,
2013-05-14 03:09:00,49.1,-7.4,30.59,WSW,241,11.0,17.0,9,0.00,,,0.00,meteohub,2013-05-14 07:09:00,
2013-05-14 03:14:00,49.1,-7.4,30.59,West,265,11.0,17.0,9,0.00,,,0.00,meteohub,2013-05-14 07:14:00,
2013-05-14 03:19:00,48.9,-7.4,30.59,WSW,237,11.0,15.0,9,0.00,,,0.00,meteohub,2013-05-14 07:19:00,
2013-05-14 03:24:00,48.9,-7.4,30.59,West,265,9.0,15.0,9,0.00,,,0.00,meteohub,2013-05-14 07:24:00,
2013-05-14 03:30:00,48.7,-7.6,30.59,West,265,10.0,15.0,9,0.00,,,0.00,meteohub,2013-05-14 07:30:00,
2013-05-14 03:35:00,48.7,-7.6,30.59,West,280,8.0,17.0,9,0.00,,,0.00,meteohub,2013-05-14 07:35:00,
2013-05-14 03:40:00,48.7,-7.6,30.59,West,274,9.0,17.0,9,0.00,,,0.00,meteohub,2013-05-14 07:40:00,
2013-05-14 03:45:00,48.7,-7.6,30.59,NW,311,8.0,15.0,9,0.00,,,0.00,meteohub,2013-05-14 07:45:00,
2013-05-14 03:50:00,48.7,-7.6,30.59,West,271,8.0,14.0,9,0.00,,,0.00,meteohub,2013-05-14 07:50:00,
2013-05-14 03:56:00,48.7,-3.5,30.59,West,275,8.0,14.0,11,0.00,,,0.00,meteohub,2013-05-14 07:56:00,
2013-05-14 04:01:00,48.7,-3.5,30.62,West,268,9.0,13.0,11,0.00,,,0.00,meteohub,2013-05-14 08:01:00,
2013-05-14 04:07:00,48.9,-3.3,30.62,SSW,204,5.0,13.0,11,0.00,,,0.00,meteohub,2013-05-14 08:07:00,
2013-05-14 04:12:00,48.9,-3.3,30.62,SW,233,8.0,14.0,11,0.00,,,0.00,meteohub,2013-05-14 08:12:00,
2013-05-14 04:17:00,48.9,-7.4,30.62,West,267,14.0,15.0,9,0.00,,,0.00,meteohub,2013-05-14 08:17:00,
2013-05-14 04:22:00,48.9,-7.4,30.62,West,261,6.0,15.0,9,0.00,,,0.00,meteohub,2013-05-14 08:22:00,
2013-05-14 04:27:00,48.9,-7.4,30.62,WSW,249,5.0,15.0,9,0.00,,,0.00,meteohub,2013-05-14 08:27:00,
2013-05-14 04:32:00,48.9,-7.4,30.62,West,262,11.0,15.0,9,0.00,,,0.00,meteohub,2013-05-14 08:32:00,
2013-05-14 04:37:00,48.9,-7.4,30.62,West,262,8.0,14.0,9,0.00,,,0.00,meteohub,2013-05-14 08:37:00,
2013-05-14 04:42:00,48.9,-7.4,30.62,SW,219,6.0,14.0,9,0.00,,,0.00,meteohub,2013-05-14 08:42:00,
2013-05-14 04:47:00,48.9,-7.4,30.62,West,261,10.0,14.0,9,0.00,,,0.00,meteohub,2013-05-14 08:47:00,
2013-05-14 04:52:00,48.9,-7.4,30.62,SW,235,5.0,11.0,9,0.00,,,0.00,meteohub,2013-05-14 08:52:00,
2013-05-14 04:57:00,48.9,-7.4,30.62,SW,236,6.0,11.0,9,0.00,,,0.00,meteohub,2013-05-14 08:57:00,
2013-05-14 05:02:00,48.9,-7.4,30.65,West,268,10.0,11.0,9,0.00,,,0.00,meteohub,2013-05-14 09:02:00,
2013-05-14 05:07:00,48.7,-7.6,30.65,WSW,239,5.0,11.0,9,0.00,,,0.00,meteohub,2013-05-14 09:07:00,
2013-05-14 05:12:00,48.7,-7.6,30.65,WSW,250,3.0,11.0,9,0.00,,,0.00,meteohub,2013-05-14 09:12:00,
2013-05-14 05:18:00,48.7,-7.6,30.65,SSW,202,6.0,11.0,9,0.00,,,0.00,meteohub,2013-05-14 09:18:00,
2013-05-14 05:23:00,48.7,-7.6,30.65,WSW,240,6.0,11.0,9,0.00,,,0.00,meteohub,2013-05-14 09:23:00,
2013-05-14 05:28:00,48.9,-7.4,30.65,SW,231,8.0,8.0,9,0.00,,,0.00,meteohub,2013-05-14 09:28:00,
2013-05-14 05:34:00,48.9,-7.4,30.65,WSW,244,6.0,8.0,9,0.00,,,0.00,meteohub,2013-05-14 09:34:00,
2013-05-14 05:39:00,48.9,-7.4,30.65,SSW,212,6.0,9.0,9,0.00,,,0.00,meteohub,2013-05-14 09:39:00,
2013-05-14 05:44:00,48.9,-7.4,30.65,SW,228,8.0,9.0,9,0.00,,,0.00,meteohub,2013-05-14 09:44:00,
2013-05-14 05:50:00,48.9,-7.4,30.65,WSW,238,8.0,9.0,9,0.00,,,0.00,meteohub,2013-05-14 09:50:00,
2013-05-14 05:55:00,49.1,-7.4,30.65,SW,224,8.0,9.0,9,0.00,,,0.00,meteohub,2013-05-14 09:55:00,
2013-05-14 06:00:00,49.1,-7.4,30.68,SSW,211,5.0,9.0,9,0.00,,,0.00,meteohub,2013-05-14 10:00:00,
2013-05-14 06:06:00,49.1,-7.4,30.68,WSW,253,6.0,10.0,9,0.00,,,0.00,meteohub,2013-05-14 10:06:00,
2013-05-14 06:11:00,49.1,-7.4,30.68,SW,214,6.0,10.0,9,0.00,,,0.00,meteohub,2013-05-14 10:11:00,
2013-05-14 06:16:00,48.9,-7.4,30.68,WSW,250,11.0,12.0,9,0.00,,,0.00,meteohub,2013-05-14 10:16:00,
2013-05-14 06:22:00,48.7,-7.6,30.68,SW,218,9.0,12.0,9,0.00,,,0.00,meteohub,2013-05-14 10:22:00,
2013-05-14 06:27:00,48.7,-7.6,30.68,WSW,254,8.0,11.0,9,0.00,,,0.00,meteohub,2013-05-14 10:27:00,
2013-05-14 06:32:00,48.9,-3.3,30.71,SSW,204,5.0,11.0,11,0.00,,,0.00,meteohub,2013-05-14 10:32:00,
2013-05-14 06:37:00,48.9,-3.3,30.71,WSW,244,8.0,11.0,11,0.00,,,0.00,meteohub,2013-05-14 10:37:00,
2013-05-14 06:42:00,48.9,-3.3,30.71,SSW,211,8.0,11.0,11,0.00,,,0.00,meteohub,2013-05-14 10:42:00,
2013-05-14 06:48:00,48.9,-3.3,30.71,SW,233,6.0,11.0,11,0.00,,,0.00,meteohub,2013-05-14 10:48:00,
2013-05-14 06:53:00,48.9,-3.3,30.71,SW,230,6.0,9.0,11,0.00,,,0.00,meteohub,2013-05-14 10:53:00,
2013-05-14 06:58:00,48.9,-3.3,30.71,West,277,3.0,9.0,11,0.00,,,0.00,meteohub,2013-05-14 10:58:00,
2013-05-14 07:03:00,48.4,8.1,30.71,SW,236,6.0,11.0,19,0.00,,,0.00,meteohub,2013-05-14 11:03:00,
2013-05-14 07:09:00,48.0,16.5,30.71,WNW,295,6.0,11.0,28,0.00,,,0.00,meteohub,2013-05-14 11:09:00,
2013-05-14 07:14:00,47.5,16.9,30.71,North,357,8.0,14.0,29,0.00,,,0.00,meteohub,2013-05-14 11:14:00,
2013-05-14 07:19:00,47.1,17.2,30.74,NNW,333,4.0,14.0,30,0.00,,,0.00,meteohub,2013-05-14 11:19:00,
2013-05-14 07:25:00,47.1,18.0,30.74,NW,320,4.0,14.0,31,0.00,,,0.00,meteohub,2013-05-14 11:25:00,
2013-05-14 07:30:00,47.3,18.1,30.74,West,270,4.0,11.0,31,0.00,,,0.00,meteohub,2013-05-14 11:30:00,
2013-05-14 07:35:00,47.3,18.9,30.74,WSW,239,4.0,11.0,32,0.00,,,0.00,meteohub,2013-05-14 11:35:00,
2013-05-14 07:41:00,47.7,23.9,30.74,SSW,194,4.0,6.0,39,0.04,,,0.04,meteohub,2013-05-14 11:41:00,
2013-05-14 07:46:00,47.7,23.9,30.74,SSW,200,6.0,6.0,39,0.04,,,0.04,meteohub,2013-05-14 11:46:00,
2013-05-14 07:51:00,47.3,23.5,30.74,SSW,193,11.0,11.0,39,0.04,,,0.04,meteohub,2013-05-14 11:51:00,
2013-05-14 07:57:00,46.9,23.9,30.74,South,181,5.0,11.0,40,0.04,,,0.04,meteohub,2013-05-14 11:57:00,
2013-05-14 08:02:00,46.9,24.4,30.74,SW,218,8.0,12.0,41,0.04,,,0.04,meteohub,2013-05-14 12:02:00,
2013-05-14 08:07:00,47.1,25.2,30.74,WSW,245,5.0,12.0,42,0.04,,,0.04,meteohub,2013-05-14 12:07:00,
2013-05-14 08:12:00,47.5,25.5,30.74,WSW,239,11.0,12.0,42,0.04,,,0.04,meteohub,2013-05-14 12:12:00,
2013-05-14 08:17:00,47.7,25.7,30.74,West,276,8.0,15.0,42,0.04,,,0.04,meteohub,2013-05-14 12:17:00,
2013-05-14 08:23:00,47.7,25.7,30.74,WSW,254,6.0,15.0,42,0.04,,,0.04,meteohub,2013-05-14 12:23:00,
2013-05-14 08:28:00,47.7,25.2,30.74,West,265,8.0,15.0,41,0.04,,,0.04,meteohub,2013-05-14 12:28:00,
2013-05-14 08:33:00,47.5,25.5,30.77,West,281,5.0,15.0,42,0.04,,,0.04,meteohub,2013-05-14 12:33:00,
2013-05-14 08:38:00,47.7,26.2,30.77,WSW,252,15.0,15.0,43,0.04,,,0.08,meteohub,2013-05-14 12:38:00,
2013-05-14 08:44:00,47.8,25.9,30.77,WSW,250,8.0,15.0,42,0.04,,,0.08,meteohub,2013-05-14 12:44:00,
2013-05-14 08:49:00,47.8,25.3,30.77,NW,305,16.0,16.0,41,0.04,,,0.08,meteohub,2013-05-14 12:49:00,
2013-05-14 08:54:00,47.8,24.6,30.77,WSW,254,12.0,17.0,40,0.04,,,0.08,meteohub,2013-05-14 12:54:00,
2013-05-14 09:00:00,48.0,24.3,30.77,WNW,282,8.0,17.0,39,0.04,,,0.08,meteohub,2013-05-14 13:00:00,
2013-05-14 09:05:00,48.2,23.7,30.77,West,277,9.0,17.0,38,0.04,,,0.08,meteohub,2013-05-14 13:05:00,
2013-05-14 09:11:00,48.6,23.5,30.77,WNW,296,13.0,17.0,37,0.04,,,0.08,meteohub,2013-05-14 13:11:00,
2013-05-14 09:16:00,48.9,23.2,30.80,WNW,288,16.0,17.0,36,0.04,,,0.08,meteohub,2013-05-14 13:16:00,
2013-05-14 09:21:00,49.1,22.6,30.80,WNW,287,13.0,17.0,35,0.04,,,0.08,meteohub,2013-05-14 13:21:00,
2013-05-14 09:27:00,49.3,19.9,30.80,WNW,300,8.0,17.0,31,0.00,,,0.08,meteohub,2013-05-14 13:27:00,
2013-05-14 09:32:00,49.8,20.3,30.80,WNW,287,12.0,17.0,31,0.00,,,0.08,meteohub,2013-05-14 13:32:00,
2013-05-14 09:37:00,50.2,19.9,30.80,WNW,296,17.0,17.0,30,0.00,,,0.08,meteohub,2013-05-14 13:37:00,
2013-05-14 09:42:00,50.4,19.2,30.80,WSW,251,5.0,20.0,29,0.00,,,0.08,meteohub,2013-05-14 13:42:00,
2013-05-14 09:47:00,50.7,19.6,30.80,NW,304,8.0,20.0,29,0.00,,,0.08,meteohub,2013-05-14 13:47:00,
2013-05-14 09:52:00,50.5,17.8,30.80,WNW,287,13.0,20.0,27,0.00,,,0.08,meteohub,2013-05-14 13:52:00,
2013-05-14 09:57:00,50.7,18.0,30.80,WSW,257,6.0,20.0,27,0.00,,,0.08,meteohub,2013-05-14 13:57:00,
2013-05-14 10:03:00,50.5,17.8,30.80,WNW,295,14.0,17.0,27,0.00,,,0.08,meteohub,2013-05-14 14:03:00,
2013-05-14 10:08:00,50.7,18.0,30.80,NW,310,11.0,17.0,27,0.00,,,0.08,meteohub,2013-05-14 14:08:00,
2013-05-14 10:13:00,50.7,15.3,30.80,NW,314,10.0,17.0,24,0.00,,,0.08,meteohub,2013-05-14 14:13:00,
2013-05-14 10:19:00,52.0,18.1,30.80,NW,310,8.0,17.0,26,0.00,,,0.08,meteohub,2013-05-14 14:19:00,
2013-05-14 10:24:00,53.2,14.4,30.80,WNW,300,14.0,17.0,21,0.00,,,0.08,meteohub,2013-05-14 14:24:00,
2013-05-14 10:29:00,54.1,11.5,30.77,NW,317,8.0,16.0,18,0.00,,,0.08,meteohub,2013-05-14 14:29:00,
2013-05-14 10:35:00,54.9,8.1,30.77,West,280,12.0,16.0,15,0.00,,,0.08,meteohub,2013-05-14 14:35:00,
2013-05-14 10:40:00,54.5,-0.9,30.77,NW,315,11.0,18.0,10,0.00,,,0.08,meteohub,2013-05-14 14:40:00,
2013-05-14 10:45:00,54.5,-0.9,30.77,WNW,289,13.0,18.0,10,0.00,,,0.08,meteohub,2013-05-14 14:45:00,
2013-05-14 10:51:00,54.9,-0.8,30.77,NW,305,13.0,17.0,10,0.00,,,0.08,meteohub,2013-05-14 14:51:00,
2013-05-14 10:56:00,54.3,-5.8,30.77,WNW,302,11.0,17.0,8,0.00,,,0.08,meteohub,2013-05-14 14:56:00,
2013-05-14 11:01:00,55.0,-0.6,30.77,WNW,282,8.0,17.0,10,0.00,,,0.08,meteohub,2013-05-14 15:01:00,
2013-05-14 11:07:00,56.5,-6.9,30.77,WNW,294,8.0,15.0,7,0.00,,,0.08,meteohub,2013-05-14 15:07:00,
2013-05-14 11:12:00,56.7,-6.9,30.77,NW,316,7.0,15.0,7,0.00,,,0.08,meteohub,2013-05-14 15:12:00,
2013-05-14 11:17:00,57.4,-6.3,30.77,West,259,5.0,17.0,7,0.00,,,0.08,meteohub,2013-05-14 15:17:00,
2013-05-14 11:22:00,58.1,-5.8,30.77,WNW,292,16.0,17.0,7,0.00,,,0.08,meteohub,2013-05-14 15:22:00,
2013-05-14 11:27:00,58.5,-5.4,30.77,SW,235,15.0,16.0,7,0.00,,,0.08,meteohub,2013-05-14 15:27:00,
2013-05-14 11:32:00,56.3,-7.1,30.77,WSW,245,11.0,16.0,7,0.00,,,0.08,meteohub,2013-05-14 15:32:00,
2013-05-14 11:37:00,57.2,-6.3,30.77,West,267,4.0,16.0,7,0.00,,,0.08,meteohub,2013-05-14 15:37:00,
2013-05-14 11:42:00,56.7,-6.9,30.77,West,261,11.0,15.0,7,0.00,,,0.08,meteohub,2013-05-14 15:42:00,
2013-05-14 11:47:00,56.7,-6.9,30.74,WNW,286,11.0,15.0,7,0.00,,,0.08,meteohub,2013-05-14 15:47:00,
2013-05-14 11:52:00,57.6,-6.2,30.74,NW,310,3.0,15.0,7,0.00,,,0.08,meteohub,2013-05-14 15:52:00,
2013-05-14 11:57:00,56.8,-6.7,30.74,West,266,14.0,15.0,7,0.00,,,0.08,meteohub,2013-05-14 15:57:00,
2013-05-14 12:02:00,57.0,-6.5,30.53,WNW,292,10.0,14.0,7,0.00,,,0.08,meteohub,2013-05-14 16:02:00,
2013-05-14 12:07:00,59.0,-5.1,30.53,West,269,6.0,14.0,7,0.00,,,0.08,meteohub,2013-05-14 16:07:00,
2013-05-14 12:12:00,59.4,-4.7,30.53,SW,216,4.0,14.0,7,0.00,,,0.08,meteohub,2013-05-14 16:12:00,
2013-05-14 12:17:00,57.6,-6.2,30.38,SSW,213,8.0,11.0,7,0.00,,,0.08,meteohub,2013-05-14 16:17:00,
2013-05-14 12:23:00,58.3,-5.6,30.38,West,263,9.0,11.0,7,0.00,,,0.08,meteohub,2013-05-14 16:23:00,
2013-05-14 12:28:00,58.8,-5.3,30.38,WNW,289,11.0,13.0,7,0.00,,,0.08,meteohub,2013-05-14 16:28:00,
2013-05-14 12:33:00,60.8,-10.7,30.27,NW,308,10.0,13.0,5,0.00,,,0.08,meteohub,2013-05-14 16:33:00,
2013-05-14 12:38:00,61.3,-10.3,30.27,WNW,302,6.0,13.0,5,0.00,,,0.08,meteohub,2013-05-14 16:38:00,
2013-05-14 12:44:00,61.5,-10.1,30.27,NW,305,8.0,13.0,5,0.00,,,0.08,meteohub,2013-05-14 16:44:00,
2013-05-14 12:49:00,62.1,-9.8,30.21,NW,308,5.0,13.0,5,0.00,,,0.08,meteohub,2013-05-14 16:49:00,
2013-05-14 12:54:00,62.4,-9.6,30.21,West,263,10.0,13.0,5,0.00,,,0.08,meteohub,2013-05-14 16:54:00,
2013-05-14 12:59:00,62.4,-9.6,30.18,WNW,292,8.0,13.0,5,0.00,,,0.08,meteohub,2013-05-14 16:59:00,
2013-05-14 13:05:00,60.3,-7.4,30.18,WSW,251,13.0,15.0,6,0.00,,,0.08,meteohub,2013-05-14 17:05:00,
2013-05-14 13:10:00,61.0,-10.5,30.18,SSW,195,8.0,15.0,5,0.00,,,0.08,meteohub,2013-05-14 17:10:00,
2013-05-14 13:15:00,60.4,-7.2,30.15,NW,312,5.0,15.0,6,0.00,,,0.08,meteohub,2013-05-14 17:15:00,
2013-05-14 13:20:00,61.7,-9.9,30.15,NNW,329,4.0,13.0,5,0.00,,,0.08,meteohub,2013-05-14 17:20:00,
2013-05-14 13:26:00,62.2,-9.6,30.15,West,275,3.0,11.0,5,0.00,,,0.08,meteohub,2013-05-14 17:26:00,
2013-05-14 13:31:00,61.9,-9.9,30.12,South,179,3.0,11.0,5,0.00,,,0.08,meteohub,2013-05-14 17:31:00,
2013-05-14 13:36:00,62.1,-9.8,30.12,NW,310,5.0,11.0,5,0.00,,,0.08,meteohub,2013-05-14 17:36:00,
2013-05-14 13:41:00,61.3,-10.3,30.12,WNW,297,9.0,11.0,5,0.00,,,0.08,meteohub,2013-05-14 17:41:00,
2013-05-14 13:47:00,61.7,-9.9,30.09,WNW,296,6.0,12.0,5,0.00,,,0.08,meteohub,2013-05-14 17:47:00,
2013-05-14 13:52:00,61.2,-10.5,30.09,West,259,10.0,13.0,5,0.00,,,0.08,meteohub,2013-05-14 17:52:00,
2013-05-14 13:57:00,61.0,-10.5,30.09,NNW,331,8.0,13.0,5,0.00,,,0.08,meteohub,2013-05-14 17:57:00,
2013-05-14 14:02:00,60.4,-7.2,30.12,West,260,5.0,13.0,6,0.00,,,0.08,meteohub,2013-05-14 18:02:00,
2013-05-14 14:07:00,60.4,-7.2,30.12,WNW,299,8.0,11.0,6,0.00,,,0.08,meteohub,2013-05-14 18:07:00,
2013-05-14 14:12:00,60.1,-7.4,30.12,West,275,4.0,15.0,6,0.00,,,0.08,meteohub,2013-05-14 18:12:00,
2013-05-14 14:17:00,59.9,-7.6,30.15,WNW,302,3.0,15.0,6,0.00,,,0.08,meteohub,2013-05-14 18:17:00,
2013-05-14 14:22:00,59.4,-8.0,30.15,WNW,287,8.0,11.0,6,0.00,,,0.08,meteohub,2013-05-14 18:22:00,
2013-05-14 14:27:00,59.5,-7.8,30.15,West,275,8.0,11.0,6,0.00,,,0.08,meteohub,2013-05-14 18:27:00,
2013-05-14 14:32:00,60.4,-7.2,30.18,West,264,5.0,11.0,6,0.00,,,0.08,meteohub,2013-05-14 18:32:00,
2013-05-14 14:37:00,61.3,-10.3,30.18,WSW,258,6.0,13.0,5,0.00,,,0.08,meteohub,2013-05-14 18:37:00,
2013-05-14 14:42:00,60.4,-7.2,30.18,NW,306,6.0,13.0,6,0.00,,,0.08,meteohub,2013-05-14 18:42:00,
2013-05-14 14:47:00,59.4,-8.0,30.24,SW,226,0.0,11.0,6,0.00,,,0.08,meteohub,2013-05-14 18:47:00,
2013-05-14 14:53:00,59.2,-8.1,30.24,WNW,303,3.0,9.0,6,0.00,,,0.08,meteohub,2013-05-14 18:53:00,
2013-05-14 14:58:00,58.8,-8.3,30.24,WNW,295,0.0,9.0,6,0.00,,,0.08,meteohub,2013-05-14 18:58:00,
2013-05-14 15:03:00,58.1,-8.9,30.27,SSW,199,8.0,9.0,6,0.00,,,0.08,meteohub,2013-05-14 19:03:00,
2013-05-14 15:09:00,57.2,-9.6,30.27,NE,39,3.0,8.0,6,0.00,,,0.08,meteohub,2013-05-14 19:09:00,
2013-05-14 15:14:00,56.8,-9.8,30.27,East,100,8.0,16.0,6,0.00,,,0.08,meteohub,2013-05-14 19:14:00,
2013-05-14 15:19:00,56.8,-6.7,30.27,SE,144,8.0,16.0,7,0.00,,,0.08,meteohub,2013-05-14 19:19:00,
2013-05-14 15:24:00,56.3,-10.3,30.27,SSE,159,8.0,14.0,6,0.00,,,0.08,meteohub,2013-05-14 19:24:00,
2013-05-14 15:30:00,54.9,-5.4,30.35,SSE,157,11.0,14.0,8,0.00,,,0.08,meteohub,2013-05-14 19:30:00,
2013-05-14 15:35:00,54.5,-8.5,30.35,SSE,159,11.0,16.0,7,0.00,,,0.08,meteohub,2013-05-14 19:35:00,
2013-05-14 15:40:00,54.7,-5.6,30.35,South,177,8.0,16.0,8,0.00,,,0.08,meteohub,2013-05-14 19:40:00,
2013-05-14 15:45:00,55.4,-10.8,30.24,South,183,10.0,15.0,6,0.00,,,0.08,meteohub,2013-05-14 19:45:00,
2013-05-14 15:51:00,55.6,-7.6,30.24,SSE,162,13.0,15.0,7,0.00,,,0.08,meteohub,2013-05-14 19:51:00,
2013-05-14 15:56:00,54.9,-5.4,30.24,South,174,11.0,15.0,8,0.00,,,0.08,meteohub,2013-05-14 19:56:00,
2013-05-14 16:01:00,54.0,-6.2,30.15,SSE,154,11.0,15.0,8,0.00,,,0.08,meteohub,2013-05-14 20:01:00,
2013-05-14 16:07:00,53.2,-6.7,30.15,SSE,155,8.0,15.0,8,0.00,,,0.08,meteohub,2013-05-14 20:07:00,
2013-05-14 16:12:00,52.9,-6.9,30.15,SSE,150,13.0,13.0,8,0.00,,,0.08,meteohub,2013-05-14 20:12:00,
2013-05-14 16:17:00,52.9,-0.2,30.15,SSE,163,8.0,14.0,11,0.00,,,0.08,meteohub,2013-05-14 20:17:00,
2013-05-14 16:22:00,52.2,7.3,30.15,SE,130,8.0,14.0,16,0.00,,,0.08,meteohub,2013-05-14 20:22:00,
2013-05-14 16:27:00,52.3,18.5,30.15,East,96,5.0,14.0,26,0.00,,,0.08,meteohub,2013-05-14 20:27:00,
2013-05-14 16:32:00,52.9,19.8,30.15,ESE,121,5.0,14.0,27,0.00,,,0.08,meteohub,2013-05-14 20:32:00,
2013-05-14 16:37:00,54.1,21.7,30.15,SE,146,8.0,13.0,28,0.00,,,0.08,meteohub,2013-05-14 20:37:00,
2013-05-14 16:42:00,55.0,20.8,30.15,ESE,120,9.0,11.0,26,0.00,,,0.08,meteohub,2013-05-14 20:42:00,
2013-05-14 16:47:00,55.4,17.2,30.15,ESE,105,11.0,11.0,22,0.00,,,0.08,meteohub,2013-05-14 20:47:00,
2013-05-14 16:52:00,55.9,11.7,30.15,SSE,162,11.0,13.0,17,0.00,,,0.08,meteohub,2013-05-14 20:52:00,
2013-05-14 16:57:00,55.9,0.1,30.15,SSE,149,13.0,13.0,10,0.00,,,0.08,meteohub,2013-05-14 20:57:00,
2013-05-14 17:02:00,56.1,0.3,30.15,South,181,8.0,13.0,10,0.00,,,0.08,meteohub,2013-05-14 21:02:00,
2013-05-14 17:07:00,55.4,-7.8,30.15,South,189,11.0,15.0,7,0.00,,,0.08,meteohub,2013-05-14 21:07:00,
2013-05-14 17:12:00,54.7,-5.6,30.15,South,173,11.0,16.0,8,0.00,,,0.08,meteohub,2013-05-14 21:12:00,
2013-05-14 17:17:00,54.3,-5.8,30.15,South,171,11.0,16.0,8,0.00,,,0.08,meteohub,2013-05-14 21:17:00,
2013-05-14 17:22:00,54.0,-1.5,30.15,SSW,192,15.0,16.0,10,0.00,,,0.08,meteohub,2013-05-14 21:22:00,
2013-05-14 17:27:00,54.3,-5.8,30.15,South,184,13.0,16.0,8,0.00,,,0.08,meteohub,2013-05-14 21:27:00,
2013-05-14 17:32:00,54.1,-1.3,30.15,South,170,11.0,16.0,10,0.00,,,0.08,meteohub,2013-05-14 21:32:00,
2013-05-14 17:37:00,54.1,-1.3,30.15,SSE,168,16.0,20.0,10,0.00,,,0.08,meteohub,2013-05-14 21:37:00,
2013-05-14 17:42:00,54.5,-0.9,30.15,South,169,12.0,20.0,10,0.00,,,0.08,meteohub,2013-05-14 21:42:00,
2013-05-14 17:47:00,55.0,-0.6,30.15,South,183,13.0,20.0,10,0.00,,,0.08,meteohub,2013-05-14 21:47:00,
2013-05-14 17:52:00,55.4,-0.2,30.15,SSW,202,13.0,20.0,10,0.00,,,0.08,meteohub,2013-05-14 21:52:00,
2013-05-14 17:58:00,55.6,-0.2,30.15,South,172,13.0,20.0,10,0.00,,,0.08,meteohub,2013-05-14 21:58:00,
2013-05-14 18:03:00,55.2,-5.1,30.15,SSE,165,15.0,20.0,8,0.00,,,0.08,meteohub,2013-05-14 22:03:00,
2013-05-14 18:08:00,55.4,-0.2,30.15,South,171,13.0,18.0,10,0.00,,,0.08,meteohub,2013-05-14 22:08:00,
2013-05-14 18:13:00,55.0,5.0,30.15,SSE,168,15.0,18.0,13,0.00,,,0.08,meteohub,2013-05-14 22:13:00,
2013-05-14 18:18:00,54.5,4.6,30.15,South,172,11.0,18.0,13,0.00,,,0.08,meteohub,2013-05-14 22:18:00,
2013-05-14 18:24:00,54.1,-1.3,30.15,SSE,162,12.0,20.0,10,0.00,,,0.08,meteohub,2013-05-14 22:24:00,
2013-05-14 18:29:00,54.3,-1.1,30.18,SSW,192,16.0,20.0,10,0.00,,,0.08,meteohub,2013-05-14 22:29:00,
2013-05-14 18:34:00,54.5,4.6,30.18,SSW,193,11.0,17.0,13,0.00,,,0.08,meteohub,2013-05-14 22:34:00,
2013-05-14 18:40:00,54.7,4.8,30.18,South,186,10.0,17.0,13,0.00,,,0.08,meteohub,2013-05-14 22:40:00,
2013-05-14 18:45:00,54.5,-0.9,30.18,SSE,165,13.0,17.0,10,0.00,,,0.08,meteohub,2013-05-14 22:45:00,
2013-05-14 18:50:00,54.1,4.3,30.18,South,170,12.0,19.0,13,0.00,,,0.08,meteohub,2013-05-14 22:50:00,
2013-05-14 18:55:00,53.8,4.1,30.18,SSW,192,14.0,19.0,13,0.00,,,0.08,meteohub,2013-05-14 22:55:00,
2013-05-14 19:01:00,53.4,10.9,30.18,SSW,196,12.0,19.0,18,0.00,,,0.08,meteohub,2013-05-14 23:01:00,
2013-05-14 19:06:00,53.2,8.2,30.18,South,171,13.0,20.0,16,0.00,,,0.08,meteohub,2013-05-14 23:06:00,
2013-05-14 19:11:00,53.2,8.2,30.18,South,186,13.0,20.0,16,0.00,,,0.08,meteohub,2013-05-14 23:11:00,
2013-05-14 19:16:00,53.2,8.2,30.18,South,175,10.0,18.0,16,0.00,,,0.08,meteohub,2013-05-14 23:16:00,
2013-05-14 19:22:00,53.2,3.6,30.18,SSW,193,15.0,18.0,13,0.00,,,0.08,meteohub,2013-05-14 23:22:00,
2013-05-14 19:27:00,53.2,8.2,30.18,South,171,17.0,18.0,16,0.00,,,0.08,meteohub,2013-05-14 23:27:00,
2013-05-14 19:32:00,53.1,8.1,30.18,South,184,11.0,18.0,16,0.00,,,0.08,meteohub,2013-05-14 23:32:00,
2013-05-14 19:37:00,52.9,10.6,30.18,South,181,11.0,17.0,18,0.00,,,0.08,meteohub,2013-05-14 23:37:00,
2013-05-14 19:42:00,52.7,10.4,30.18,South,182,11.0,17.0,18,0.00,,,0.08,meteohub,2013-05-14 23:42:00,
2013-05-14 19:47:00,52.5,10.2,30.21,SSW,192,11.0,15.0,18,0.00,,,0.08,meteohub,2013-05-14 23:47:00,
2013-05-14 19:53:00,52.5,13.6,30.21,South,175,15.0,15.0,21,0.00,,,0.08,meteohub,2013-05-14 23:53:00,
2013-05-14 19:58:00,52.3,13.5,30.21,South,171,11.0,14.0,21,0.00,,,0.08,meteohub,2013-05-14 23:58:00,
2013-05-14 20:03:00,52.3,10.0,30.21,SSW,193,15.0,15.0,18,0.00,,,0.08,meteohub,2013-05-15 00:03:00,
2013-05-14 20:09:00,52.3,10.0,30.21,South,186,8.0,17.0,18,0.00,,,0.08,meteohub,2013-05-15 00:09:00,
2013-05-14 20:14:00,52.2,9.9,30.21,SSW,193,8.0,17.0,18,0.00,,,0.08,meteohub,2013-05-15 00:14:00,
2013-05-14 20:19:00,52.0,13.3,30.21,SSW,193,9.0,17.0,21,0.00,,,0.08,meteohub,2013-05-15 00:19:00,
2013-05-14 20:24:00,51.8,13.1,30.21,SSW,196,9.0,15.0,21,0.00,,,0.08,meteohub,2013-05-15 00:24:00,
2013-05-14 20:29:00,51.8,13.1,30.24,SSW,210,9.0,15.0,21,0.00,,,0.08,meteohub,2013-05-15 00:29:00,
2013-05-14 20:35:00,51.8,9.7,30.24,South,183,5.0,13.0,18,0.00,,,0.08,meteohub,2013-05-15 00:35:00,
2013-05-14 20:40:00,51.6,12.9,30.24,South,179,8.0,13.0,21,0.00,,,0.08,meteohub,2013-05-15 00:40:00,
2013-05-14 20:45:00,51.6,16.0,30.24,South,188,8.0,11.0,24,0.00,,,0.08,meteohub,2013-05-15 00:45:00,
2013-05-14 20:50:00,51.6,12.9,30.24,SSW,198,11.0,11.0,21,0.00,,,0.08,meteohub,2013-05-15 00:50:00,
2013-05-14 20:56:00,51.6,16.0,30.24,SSW,202,5.0,11.0,24,0.00,,,0.08,meteohub,2013-05-15 00:56:00,
2013-05-14 21:01:00,51.6,16.0,30.27,SSW,201,6.0,11.0,24,0.00,,,0.08,meteohub,2013-05-15 01:01:00,
2013-05-14 21:06:00,51.6,17.8,30.27,South,184,6.0,11.0,26,0.00,,,0.08,meteohub,2013-05-15 01:06:00,
2013-05-14 21:12:00,51.4,17.6,30.27,SSW,196,6.0,9.0,26,0.00,,,0.08,meteohub,2013-05-15 01:12:00,
2013-05-14 21:17:00,51.3,17.6,30.27,South,188,8.0,9.0,26,0.00,,,0.08,meteohub,2013-05-15 01:17:00,
2013-05-14 21:22:00,51.3,17.6,30.27,South,191,8.0,9.0,26,0.00,,,0.08,meteohub,2013-05-15 01:22:00,
2013-05-14 21:27:00,51.3,17.6,30.27,South,178,7.0,9.0,26,0.00,,,0.08,meteohub,2013-05-15 01:27:00,
2013-05-14 21:32:00,51.4,17.6,30.30,South,177,8.0,9.0,26,0.00,,,0.08,meteohub,2013-05-15 01:32:00,
2013-05-14 21:37:00,51.4,18.5,30.30,SSW,196,6.0,11.0,27,0.00,,,0.08,meteohub,2013-05-15 01:37:00,
2013-05-14 21:42:00,51.4,18.5,30.30,South,187,5.0,11.0,27,0.00,,,0.08,meteohub,2013-05-15 01:42:00,
2013-05-14 21:47:00,51.3,18.3,30.30,South,186,6.0,11.0,27,0.00,,,0.08,meteohub,2013-05-15 01:47:00,
2013-05-14 21:52:00,51.3,18.3,30.30,South,187,6.0,9.0,27,0.00,,,0.08,meteohub,2013-05-15 01:52:00,
2013-05-14 21:57:00,51.3,18.3,30.30,SSW,195,5.0,9.0,27,0.00,,,0.08,meteohub,2013-05-15 01:57:00,
2013-05-14 22:02:00,51.3,18.3,30.30,South,183,6.0,9.0,27,0.00,,,0.08,meteohub,2013-05-15 02:02:00,
2013-05-14 22:07:00,51.4,18.5,30.30,South,184,6.0,9.0,27,0.00,,,0.08,meteohub,2013-05-15 02:07:00,
2013-05-14 22:12:00,51.4,18.5,30.30,South,191,8.0,9.0,27,0.00,,,0.08,meteohub,2013-05-15 02:12:00,
2013-05-14 22:17:00,51.6,18.7,30.30,South,188,6.0,9.0,27,0.00,,,0.08,meteohub,2013-05-15 02:17:00,
2013-05-14 22:22:00,51.8,18.9,30.30,SSW,198,5.0,9.0,27,0.00,,,0.08,meteohub,2013-05-15 02:22:00,
2013-05-14 22:27:00,52.0,19.0,30.30,South,191,6.0,9.0,27,0.00,,,0.08,meteohub,2013-05-15 02:27:00,
2013-05-14 22:32:00,52.0,19.0,30.27,SSW,200,6.0,9.0,27,0.00,,,0.08,meteohub,2013-05-15 02:32:00,
2013-05-14 22:37:00,52.0,18.1,30.27,SSW,197,8.0,8.0,26,0.00,,,0.08,meteohub,2013-05-15 02:37:00,
2013-05-14 22:40:00,52.0,18.1,30.27,SSW,195,7.0,8.0,26,0.00,,,0.08,meteohub,2013-05-15 02:40:00,
2013-05-14 22:42:00,52.0,18.1,30.27,South,190,8.0,8.0,26,0.00,,,0.08,meteohub,2013-05-15 02:42:00,
2013-05-14 22:47:00,52.0,15.3,30.30,SSW,204,6.0,8.0,23,0.00,,,0.08,meteohub,2013-05-15 02:47:00,
2013-05-14 22:52:00,51.8,13.1,30.30,SSW,202,6.0,8.0,21,0.00,,,0.08,meteohub,2013-05-15 02:52:00,
2013-05-14 22:57:00,51.8,9.7,30.30,SSW,199,6.0,8.0,18,0.00,,,0.08,meteohub,2013-05-15 02:57:00,
2013-05-14 23:02:00,51.8,13.1,30.30,SSW,208,6.0,8.0,21,0.00,,,0.08,meteohub,2013-05-15 03:02:00,
2013-05-14 23:07:00,51.6,12.9,30.30,SSW,202,8.0,8.0,21,0.00,,,0.08,meteohub,2013-05-15 03:07:00,
2013-05-14 23:12:00,51.6,6.8,30.30,SW,216,5.0,8.0,16,0.00,,,0.08,meteohub,2013-05-15 03:12:00,
2013-05-14 23:17:00,51.4,3.7,30.24,SSW,204,8.0,8.0,14,0.00,,,0.08,meteohub,2013-05-15 03:17:00,
2013-05-14 23:22:00,51.3,3.7,30.24,SW,216,6.0,8.0,14,0.00,,,0.08,meteohub,2013-05-15 03:22:00,
2013-05-14 23:27:00,51.1,-1.7,30.24,SW,217,8.0,8.0,11,0.00,,,0.08,meteohub,2013-05-15 03:27:00,
2013-05-14 23:32:00,51.1,-1.7,30.24,SSW,205,8.0,8.0,11,0.00,,,0.08,meteohub,2013-05-15 03:32:00,
2013-05-14 23:37:00,50.9,-1.8,30.24,SSW,205,6.0,8.0,11,0.00,,,0.08,meteohub,2013-05-15 03:37:00,
2013-05-14 23:42:00,50.7,-1.8,30.24,SSW,205,6.0,8.0,11,0.00,,,0.08,meteohub,2013-05-15 03:42:00,
2013-05-14 23:47:00,50.5,-2.0,30.24,SW,214,6.0,8.0,11,0.00,,,0.08,meteohub,2013-05-15 03:47:00,
2013-05-14 23:52:00,50.2,-2.4,30.24,SSW,210,4.0,7.0,11,0.00,,,0.08,meteohub,2013-05-15 03:52:00,
2013-05-14 23:57:00,50.0,-2.6,30.24,SW,214,4.0,7.0,11,0.00,,,0.08,meteohub,2013-05-15 03:57:00,